{"data":{"norad_id":58363,"intl_designator":"2023-177N","name":"STARLINK-30909","alt_names":[],"object_type":"PAYLOAD","status":"ACTIVE","operator":null,"country":"US","launch_date":"2023-11-18","launch_site_code":"AFETR","launch_vehicle":null,"mission":null,"orbit_class":"UNKNOWN","rcs_meters":null,"size_class":null,"mass_kg":null,"dimensions":null,"purposes":["comms"],"wikipedia_slug":null,"has_3d_model":false,"image_url":null,"decayed_at":null,"tle_current":{"epoch":"2026-09-20T06:06:40.235040Z","epoch_age_seconds":164905,"freshness":"FRESH","line1":"1 58363U 23177N   26263.25463235  .00000072  00000+0  12146-4 0  9990","line2":"2 58363  43.0065 331.8063 0002148 283.3704  76.6909 15.27575790157986","mean_motion":15.2757579,"eccentricity":0.0002148,"inclination_deg":43.0065,"raan_deg":331.8063,"arg_perigee_deg":283.3704,"mean_anomaly_deg":76.6909,"bstar":1.2146e-5,"rev_number":15798,"period_min":94.26700851288,"perigee_km":481.58791684189,"apogee_km":484.5354878044,"semimajor_km":6861.1987023231,"source":"CELESTRAK","updated_at":"2026-09-21T09:00:33.843297Z"}}}